Simultaneous Nadir Overpasses (SNOs) Predictions

Prediction of SNOs between AQUA and NPP Satellite Orbit:

Table of predicted SNOs for the next 14.0 days since TLE Epoch: 5/8/2021
Index Date (AQUA) Time (AQUA) Lat,Lon (AQUA) SZA (AQUA ) Date (NPP) Time (NPP) Lat,Lon (NPP) SZA (NPP ) Distance(km) Time Diff (sec)
1 05/08/2021 22:37:59 -75.95,-100.66 99.88 05/08/2021 22:37:51 -75.95,-100.65 99.88 0.25 8
2 05/08/2021 23:27:02 77.02, 70.59 78.85 05/08/2021 23:28:11 77.03, 70.69 78.77 2.68 69
3 05/11/2021 14:05:15 75.22,-154.50 80.28 05/11/2021 14:04:18 75.22,-154.49 80.32 0.33 57
4 05/11/2021 14:54:23 -76.21, 16.03 100.87 05/11/2021 14:54:43 -76.20, 15.98 100.88 1.26 20
5 05/14/2021 06:21:38 75.53, -37.78 79.28 05/14/2021 06:21:09 75.53, -37.80 79.31 0.75 29
6 05/14/2021 07:10:47 -76.46, 132.72 101.81 05/14/2021 07:11:35 -76.45, 132.64 101.83 2.22 48
7 05/16/2021 21:52:18 -63.73,-107.33 89.00 05/16/2021 21:51:05 -63.88,-108.44 88.73 57.17 73
8 05/16/2021 22:37:58 75.92, 79.27 78.22 05/16/2021 22:37:57 75.92, 79.23 78.23 1.26 1
9 05/16/2021 23:26:02 -79.61, -96.15 106.55 05/16/2021 23:27:16 -79.45, -95.51 106.67 22.44 74
10 05/19/2021 14:05:12 -75.43, 26.06 101.77 05/19/2021 14:04:21 -75.44, 26.13 101.75 2.19 51



Historial Predications of SNOs between AQUA and NPP
